SnugLite
1 43784U 18099AC  24231.69631180  .00018237  00000-0  12005-2 0  9990
2 43784  97.4911 286.3606 0005802 100.5559 259.6323 15.07576857312052
ITASat 1
1 43786U 18099AE  24231.70029242  .00014709  00000-0  10233-2 0  9995
2 43786  97.5060 287.2257 0018034 137.1503 223.1133 15.05451117311972
EAGLET 1
1 43790U 18099AJ  24231.67853197  .00010498  00000-0  76690-3 0  9991
2 43790  97.5254 287.6940 0015539 115.1875 245.0964 15.03733680311667
ESEO
1 43792U 18099AL  24231.18311093  .00005486  00000-0  44341-3 0  9992
2 43792  97.5173 283.6784 0011396 105.8792 254.3689 15.00147675311490
CSIM
1 43793U 18099AM  24231.14698318  .00051789  00000-0  24493-2 0  9999
2 43793  97.5260 295.4443 0012304 100.7635 259.4985 15.19126065312172
JO-97
1 43803U 18099AX  24231.13854658  .00022328  00000-0  14092-2 0  9992
2 43803  97.5155 288.4750 0010964  93.4561 266.7922 15.09049627312030
Suomi 100
1 43804U 18099AY  24231.15793293  .00019759  00000-0  12774-2 0  9991
2 43804  97.5239 288.2728 0016904  91.4538 268.8626 15.08121566312013
ISAT
1 43879U 18111D   24231.24600138  .00027550  00000-0  15743-2 0  9990
2 43879  97.6122 136.7095 0014528 139.1888 221.0433 15.12575339308792
UWE-4
1 43880U 18111E   24231.20888630  .00024583  00000-0  14509-2 0  9995
2 43880  97.6051 136.5290 0017629 148.9814 211.2461 15.11390608308797
Sparrow
1 43881U 18111F   24231.72425711  .00025333  00000-0  14261-2 0  9999
2 43881  97.6215 139.2121 0010394 170.6760 189.4666 15.13174889306937
Prox-1
1 44339U 19036A   24231.25549475  .00023254  00000-0  38689-2 0  9997
2 44339  23.9975 185.6357 0007987 329.8951  30.1085 14.68614496274462
SONATE
1 44400U 19038Q   24231.03817260  .00047271  00000-0  12683-2 0  9995
2 44400  97.7133 228.0469 0012847 236.3302 123.6717 15.37730165283576
Taurus 1
1 44530U 19059C   24231.84689444  .00018208  00000-0  40740-2 0  9995
2 44530  98.5808 353.7385 0011274 219.9887 140.0481 14.56694659260886
Duchifat 3
1 44854U 19089C   24231.82569648  .00034711  00000-0  16089-2 0  9994
2 44854  36.9568  28.0118 0005978 278.5978  81.4092 15.19201931257728
TO-108
1 44881U 19093C   24231.82061713  .00003712  00000-0  45080-3 0  9990
2 44881  97.8256 307.3955 0015581 116.0423 244.2398 14.84036185252330
FloripaSat 1
1 44885U 19093G   24231.77472767  .00014220  00000-0  14264-2 0  9998
2 44885  97.8392 313.9059 0013399 108.2678 252.0000 14.91365522252697
RS-44
1 44909U 19096E   24231.03068668  .00000037  00000-0  11117-3 0  9994
2 44909  82.5179  63.6731 0216450 266.6188  91.0134 12.79732950216889
BY70-2
1 45857U 20042B   24231.44075026  .07259799  20174+0  11687-1 0  9992
2 45857  97.8809 330.7637 0019893 294.0581  65.8620 16.10833482224180
UPMSat 2
1 46276U 20061E   24231.14929047  .00038777  00000-0  10747-2 0  9995
2 46276  97.2931 296.7677 0000595 178.2247 181.9000 15.36849162219682
AmicalSat
1 46287U 20061R   24231.17050912  .00081734  00000-0  18237-2 0  9999
2 46287  97.3432 298.6626 0000600  30.0590 330.0693 15.43258750219106
SALSAT
1 46495U 20068K   24230.95107553  .00015908  00000-0  86745-3 0  9996
2 46495  97.8205 191.8583 0015977 101.8430 258.4594 15.14357707213656
UVSQ-SAT
1 47438U 21006AB  24231.11001682  .00168600  00000-0  21494-2 0  9999
2 47438  97.3186 292.8146 0002992 322.7682  37.3366 15.58731938198349
SOMP 2b
1 47445U 21006AJ  24231.13739522  .00131077  00000-0  20312-2 0  9996
2 47445  97.3142 290.7432 0003812 358.7293   1.3950 15.53554019198240
IDEASSat
1 47458U 21006AX  24231.69747402  .00092045  00000-0  16548-2 0  9994
2 47458  97.3266 291.6244 0003964 359.5188   0.6059 15.49518913198242
CubeSX-Sirius-HSE
1 47951U 21022V   24231.81271513  .00041569  00000-0  14574-2 0  9991
2 47951  97.4515 130.1298 0010216 275.3078  84.6996 15.29283189188136
CubeSX-HSE
1 47952U 21022W   24231.76125672  .00044495  00000-0  15523-2 0  9996
2 47952  97.4517 130.1822 0010105 274.2159  85.7926 15.29428515188136
KSU-Cubesat
1 47954U 21022Y   24231.67945011  .00053222  00000-0  16469-2 0  9993
2 47954  97.4528 131.7421 0008613 264.7646  95.2613 15.33264682187943
GRBAlpha
1 47959U 21022AD  24231.85263112  .00044264  00000-0  15400-2 0  9993
2 47959  97.4520 130.4337 0009954 273.9815  86.0287 15.29520959186975
Orbicraft-Zorkiy
1 47960U 21022AE  24231.82187840  .00047797  00000-0  15377-2 0  9992
2 47960  97.4560 131.9285 0008753 268.4094  91.6145 15.32046869187730
STECCO
1 47962U 21022AG  24228.02305010  .17567430  26699-5  34381-3 0  9996
2 47962  97.4265 141.9998 0011844 218.2455 141.8009 16.46434050187393
TUBIN
1 48900U 21059X   24231.85102461  .00029706  00000-0  93231-3 0  9992
2 48900  97.6525  18.4508 0006254 221.9984 138.0779 15.32968248174516
LEDSAT
1 49069U 21073D   24231.73970462  .00035182  00000-0  12865-2 0  9994
2 49069  97.4338 302.5504 0018598  65.7970 294.5211 15.27824453165993
CUTE
1 49263U 21088D   24231.10149192  .00044700  00000-0  18974-2 0  9998
2 49263  97.4927 296.7900 0013056 218.9157 141.1140 15.22866750159059
TeikyoSat 4
1 49396U 21102B   24231.69374188  .00005124  00000-0  36575-3 0  9996
2 49396  97.4544 274.5127 0014642  66.5497 293.7268 15.04862758152155
Z-Sat
1 49399U 21102E   24231.87822835  .00011466  00000-0  71896-3 0  9997
2 49399  97.4267 276.4044 0020832  46.2328 314.0621 15.09305003152447
KOSEN 1
1 49402U 21102H   24231.72025367  .00014312  00000-0  81663-3 0  9997
2 49402  97.4193 277.9279 0018863  30.8588 329.3747 15.12705538152599
HO-113
1 50466U 21131B   24231.81246071  .00001946  00000-0  63387-3 0  9990
2 50466  98.5273 316.5919 0003138 307.6275  52.4628 14.39833710139016
IRIS-A
1 51044U 22002BN  24231.71373442  .00041465  00000-0  12133-2 0  9995
2 51044  97.3805 298.1207 0006459 164.1240 196.0207 15.35114404144001
OreSat0
1 52017U 22026K   24231.50198182  .00254311  00000-0  21174-2 0  9996
2 52017  97.4874 249.1880 0003840   8.9591 351.1738 15.69331084135428
Planetum 1
1 52738U 22057G   24231.26093517  .00112052  00000-0  20322-2 0  9998
2 52738  97.5701 359.9631 0005776 278.9016  81.1580 15.49181465124150
Foresail-1
1 52766U 22057AL  24230.92062046  .00045584  00000-0  13193-2 0  9997
2 52766  97.5881 358.0371 0008768 270.7328  89.2911 15.35420356123911
SNUGLITE 2
1 52899U 22065F   24231.37928110  .00004544  00000-0  93157-3 0  9996
2 52899  98.1273  11.3582 0006973 325.7145  34.3605 14.61179602113347
IO-117
1 53106U 22080B   24228.11242500 -.00000003  00000-0  00000-0 0  9994
2 53106  70.1424 172.0499 0007747  94.1050 266.0495  6.42557430 49057
SelfieSat
1 53951U 22057BC  24231.37720033  .00537381  00000-0  26688-2 0  9995
2 53951  97.5645   5.8685 0010237 275.8157  84.1943 15.80506697124510
FO-118
1 54684U 22167C   24231.82756511  .00062416  00000-0  18188-2 0  9999
2 54684  97.6109  18.3599 0009838 282.8757  77.1387 15.35111668 93892
SSS-2B
1 56184U 23054G   24231.83349405  .00083336  00000-0  16039-2 0  9990
2 56184  97.3589 130.5800 0002400 336.9257  23.1885 15.47597978 75804
CIRBE
1 56188U 23054L   24231.70317446  .00228361  00000-0  20547-2 0  9998
2 56188  97.3485 133.7043 0003347 146.0461 214.1014 15.67502251 76028
INSPIRE-Sat 7
1 56211U 23054AK  24231.68562178  .00306917  00000-0  21412-2 0  9992
2 56211  97.3495 135.2863 0004832 165.2132 194.9275 15.73418123 76116
RoseyCubesat 1
1 56212U 23054AL  24231.69996021  .00664353  17301-3  23458-2 0  9990
2 56212  97.3456 136.8474 0007674 162.2620 197.8922 15.89037898 76210
SO-120
1 56992U 23084BU  24231.56633161  .00070318  00000-0  21534-2 0  9997
2 56992  97.5356 351.8188 0010862 168.6223 191.5266 15.33491826 65729
MRC-100
1 56993U 23084BV  24230.78429606  .00091889  00000-0  25521-2 0  9994
2 56993  97.5345 351.6577 0009728 171.0526 189.0893 15.36485257 65655
UmKA 1 (RS40S)
1 57172U 23091G   24231.83683628  .00013476  00000-0  86200-3 0  9993
2 57172  97.6067 283.2717 0015185 266.5944  93.3547 15.08627262 62935
CubeBel-2 (EU11S)
1 57175U 23091K   24231.81918206  .00017339  00000-0  10772-2 0  9999
2 57175  97.6075 283.2831 0013328 278.9262  81.0458 15.09658976 62933
VERONIKA
1 58261U 23174F   24231.82743134  .00042432  00000-0  17180-2 0  9997
2 58261  97.4570 306.1459 0011045  27.7650 332.4175 15.24497920 43243
KAFASAT
1 58317U 23174BP  24231.82315030  .00053893  00000-0  19160-2 0  9992
2 58317  97.4513 307.0161 0009307   1.0044 359.1212 15.28768464 43316
ENSO
1 58470U 23185J   24231.82035982  .00034719  00000-0  13397-2 0  9991
2 58470  97.4220 297.9743 0012363  63.4059 296.8444 15.26139686 39683
EIRSAT-1
1 58472U 23185L   24231.83048214  .00039502  00000-0  14818-2 0  9990
2 58472  97.4214 298.0882 0011797  64.3132 295.9324 15.27054220 39695
SO-121
1 58567U 23174CY  24231.75471038  .00133283  00000-0  33262-2 0  9993
2 58567  97.4484 308.0247 0007877 355.6505   4.4671 15.39633702 43379
SONATE-2
1 59112U 24043Q   24231.33846718  .00026239  00000-0  11955-2 0  9998
2 59112  97.4845 354.5970 0015216  78.4452 281.8491 15.20541783 25247
MESAT1
1 60209U 24125G   24231.64658093  .00024383  00000-0  11029-2 0  9999
2 60209  97.3175  83.1730 0027747 104.7756 255.6557 15.20555869  6906
GRBBeta
1 60237U 24128C   24231.53821371  .00010145  00000-0  88311-3 0  9992
2 60237  61.9953  24.3965 0013018 315.6432  44.3612 14.97354212  5934
